Weather History for Flag Island, MN

Change the Weather History Date:

Saturday, October 13, 2012

  Actual Average Record
Temperature  
Mean Temperature 46 °F -  
Max Temperature 51 °F 46 °F 59 °F (2008)
Min Temperature 42 °F 36 °F 24 °F (2002)
Degree Days  
Heating Degree Days 18    
Moisture  
Dew Point 34 °F    
Average Humidity 65    
Maximum Humidity 81    
Minimum Humidity 53    
Precipitation  
Precipitation 0.00 in - - ()
Sea Level Pressure  
Sea Level Pressure 29.73 in    
Wind  
Wind Speed 14 mph (SSE)    
Max Wind Speed 25 mph    
Max Gust Speed 28 mph    
Visibility 10 miles    
Events      
Averages and records for this station are not official NWS values.
T = Trace of Precipitation, MM = Missing Value Source: NWS Daily Summary

Daily Weather History Graph

Daily Weather History Graph

Search for Another Location

Airport:

Trip Planner

Search our weather history database for the weather conditions in past years. The results will help you decide how hot, cold, wet, or windy it might be!

Date:

Astronomy

Oct. 13, 2012 Rise Set
Actual Time 7:38 AM CDT 6:32 PM CDT
Civil Twilight 7:06 AM CDT 7:04 PM CDT
Nautical Twilight 6:29 AM CDT 7:41 PM CDT
Astronomical Twilight 5:52 AM CDT 8:18 PM CDT
Moon 5:21 AM CDT (10/13) 5:21 PM CDT (10/13)
Length of Visible Light 11h 58m
Length of Day
10h 53m
Waning Crescent, 5% of the Moon is Illuminated
Oct 13
Waning Crescent
Oct 15
New
Oct 21
First Quarter
Oct 29
Full
Nov 6
Last Quarter

Hourly Weather History & Observations

Time (CDT) Temp. Windchill Dew Point Humidity Pressure Visibility Wind Dir Wind Speed Gust Speed Precip Events Conditions
12:13 AM 42.8 °F 34.3 °F 26.6 °F 53% 29.85 in 10.0 mi SSE 19.6 mph - N/A   Clear
12:33 AM 42.8 °F 34.3 °F 26.6 °F 53% 29.85 in 10.0 mi SSE 19.6 mph 25.3 mph N/A   Clear
1:13 AM 42.8 °F 34.0 °F 28.4 °F 57% 29.84 in 10.0 mi SSE 20.7 mph - N/A   Clear
2:13 AM 42.8 °F 33.1 °F 30.2 °F 61% 29.79 in 10.0 mi SSE 25.3 mph - N/A   Clear
2:33 AM 42.8 °F 33.5 °F 30.2 °F 61% 29.79 in 10.0 mi SSE 23.0 mph - N/A   Clear
3:34 AM 42.8 °F 34.0 °F 30.2 °F 61% 29.76 in 10.0 mi SSE 20.7 mph - N/A   Clear
3:54 AM 42.8 °F 34.3 °F 30.2 °F 61% 29.74 in 10.0 mi SSE 19.6 mph - N/A   Clear
4:13 AM 42.8 °F 33.8 °F 28.4 °F 57% 29.73 in 10.0 mi SSE 21.9 mph - N/A   Clear
4:34 AM 42.8 °F 33.5 °F 30.2 °F 61% 29.72 in 10.0 mi SSE 23.0 mph 27.6 mph N/A   Clear
5:34 AM 42.8 °F 34.0 °F 30.2 °F 61% 29.71 in 10.0 mi SSE 20.7 mph - N/A   Clear
5:54 AM 42.8 °F 34.0 °F 30.2 °F 61% 29.69 in 10.0 mi SSE 20.7 mph - N/A   Clear
6:13 AM 42.8 °F 35.1 °F 30.2 °F 61% 29.70 in 10.0 mi SSE 16.1 mph - N/A   Clear
6:34 AM 42.8 °F 36.2 °F 30.2 °F 61% 29.69 in 10.0 mi SSE 12.7 mph - N/A   Clear
6:53 AM 42.8 °F 35.4 °F 30.2 °F 61% 29.70 in 10.0 mi SSE 15.0 mph - N/A   Clear
7:13 AM 42.8 °F 35.1 °F 30.2 °F 61% 29.70 in 10.0 mi SSE 16.1 mph - N/A   Clear
7:53 AM 42.8 °F 35.1 °F 32.0 °F 66% 29.70 in 10.0 mi SSE 16.1 mph - N/A   Clear
8:14 AM 42.8 °F 34.8 °F 32.0 °F 66% 29.69 in 10.0 mi SSE 17.3 mph - N/A   Clear
8:54 AM 42.8 °F 34.3 °F 32.0 °F 66% 29.69 in 10.0 mi SSE 19.6 mph - N/A   Clear
9:13 AM 42.8 °F 35.4 °F 32.0 °F 66% 29.69 in 10.0 mi SSE 15.0 mph - N/A   Clear
9:34 AM 42.8 °F 36.2 °F 33.8 °F 70% 29.70 in 10.0 mi SSE 12.7 mph - N/A   Clear
9:53 AM 42.8 °F 37.5 °F 33.8 °F 70% 29.70 in 10.0 mi SSE 9.2 mph - N/A   Clear
10:14 AM 42.8 °F 37.5 °F 33.8 °F 70% 29.70 in 10.0 mi SSE 9.2 mph - N/A   Clear
10:53 AM 42.8 °F 37.5 °F 33.8 °F 70% 29.69 in 10.0 mi SSE 9.2 mph - N/A   Clear
11:34 AM 44.6 °F 39.7 °F 33.8 °F 66% 29.69 in 10.0 mi SSE 9.2 mph - N/A   Clear
11:53 AM 44.6 °F 39.2 °F 35.6 °F 71% 29.69 in 10.0 mi SSE 10.4 mph - N/A   Clear
12:14 PM 44.6 °F 39.2 °F 33.8 °F 66% 29.69 in 10.0 mi SSE 10.4 mph - N/A   Clear
12:33 PM 44.6 °F 39.2 °F 35.6 °F 71% 29.68 in 10.0 mi SSE 10.4 mph - N/A   Clear
12:53 PM 44.6 °F 39.7 °F 35.6 °F 71% 29.68 in 10.0 mi SSE 9.2 mph - N/A   Clear
1:14 PM 46.4 °F 42.9 °F 35.6 °F 66% 29.67 in 10.0 mi SSE 6.9 mph - N/A   Clear
1:33 PM 46.4 °F 42.9 °F 35.6 °F 66% 29.67 in 10.0 mi SSE 6.9 mph - N/A   Clear
1:53 PM 48.2 °F - 35.6 °F 62% 29.68 in 10.0 mi SE 3.5 mph - N/A   Clear
2:14 PM 50.0 °F - 33.8 °F 54% 29.68 in 10.0 mi SSE 5.8 mph - N/A   Clear
2:33 PM 48.2 °F - 35.6 °F 62% 29.67 in 10.0 mi SSE 4.6 mph - N/A   Clear
2:53 PM 50.0 °F - 35.6 °F 58% 29.68 in 10.0 mi SSE 4.6 mph - N/A   Clear
3:13 PM 50.0 °F - 35.6 °F 58% 29.68 in 10.0 mi SE 4.6 mph - N/A   Clear
3:33 PM 51.8 °F - 35.6 °F 54% 29.67 in 10.0 mi ESE 3.5 mph - N/A   Clear
3:54 PM 51.8 °F - 35.6 °F 54% 29.68 in 10.0 mi Calm Calm - N/A   Clear
4:13 PM 51.8 °F - 37.4 °F 58% 29.68 in 10.0 mi Calm Calm - N/A   Clear
4:54 PM 51.8 °F - 37.4 °F 58% 29.69 in 10.0 mi North 5.8 mph - N/A   Clear
5:13 PM 50.0 °F - 37.4 °F 62% 29.70 in 10.0 mi North 6.9 mph - N/A   Clear
5:33 PM 50.0 °F - 37.4 °F 62% 29.71 in 10.0 mi North 6.9 mph - N/A   Clear
5:54 PM 50.0 °F - 37.4 °F 62% 29.72 in 10.0 mi North 6.9 mph - N/A   Clear
6:13 PM 50.0 °F - 37.4 °F 62% 29.72 in 10.0 mi North 5.8 mph - N/A   Clear
6:33 PM 48.2 °F - 37.4 °F 66% 29.73 in 10.0 mi North 5.8 mph - N/A   Clear
8:14 PM 46.4 °F - 37.4 °F 71% 29.76 in 10.0 mi Calm Calm - N/A   Clear
8:33 PM 44.6 °F - 37.4 °F 76% 29.77 in 10.0 mi Calm Calm - N/A   Clear
9:14 PM 44.6 °F 43.1 °F 37.4 °F 76% 29.79 in 10.0 mi NNW 3.5 mph - N/A   Clear
9:33 PM 44.6 °F - 37.4 °F 76% 29.79 in 10.0 mi Calm Calm - N/A   Clear
9:53 PM 44.6 °F 43.1 °F 37.4 °F 76% 29.80 in 10.0 mi NNW 3.5 mph - N/A   Clear
10:14 PM 44.6 °F - 37.4 °F 76% 29.80 in 10.0 mi Calm Calm - N/A   Clear
10:33 PM 44.6 °F 42.2 °F 37.4 °F 76% 29.80 in 10.0 mi NW 4.6 mph - N/A   Clear
10:53 PM 42.8 °F 38.6 °F 37.4 °F 81% 29.81 in 10.0 mi NW 6.9 mph - N/A   Clear
11:14 PM 42.8 °F 39.3 °F 37.4 °F 81% 29.82 in 10.0 mi NW 5.8 mph - N/A   Clear
11:33 PM 42.8 °F 39.3 °F 35.6 °F 76% 29.82 in 10.0 mi NW 5.8 mph - N/A   Clear